SCP
1 1 2 2 1 0 0 1 1 1 1 0 0 0 0 0 0 0 0 1 1 1 1 1 1 1 1 1 1 1 1 1 1 0 1 1 1 1 1 1 1 1 1 1 1 1 1 0 0
1 1 1 1 1 0 0 1 1 1 1 0 0 0 0 0 0 0 1 1 1 1 1 1 1 1 1 1 1 2 2 2 1 1 1 1 1 1 1 1 1 1 1 1 1 1 0 0 0
1 1 1 1 0 0 0 1 1 1 0 0 0 0 0 0 0 1 1 1 1 1 1 1 1 1 1 1 1 1 2 2 2 1 1 1 1 1 1 1 1 0 0 0 0 0 0 0 0
1 1 1 1 0 0 0 1 1 0 0 0 0 0 0 0 0 1 1 2 2 1 1 1 1 1 1 1 1 1 2 3 3 2 1 1 1 1 1 0 0 0 0 0 0 0 0 0 0
1 1 1 0 0 0 1 1 0 0 0 0 0 0 0 0 1 1 1 2 2 1 1 1 1 1 1 1 1 2 2 3 3 2 1 1 1 1 0 0 0 0 0 0 0 0 0 0 0
1 1 1 0 0 1 1 1 0 0 0 0 0 0 0 0 1 1 1 2 2 1 1 1 1 1 1 1 1 2 2 2 2 2 1 1 1 1 0 0 0 0 0 0 0 0 0 0 0
1 1 0 0 0 1 1 1 1 1 1 1 1 0 0 0 1 1 1 2 1 1 1 0 0 0 1 1 1 1 1 2 2 1 1 1 1 0 0 0 0 0 0 1 1 1 0 0 0
1 1 0 0 0 0 1 1 1 1 1 1 1 0 0 1 1 1 2 2 1 1 1 0 0 0 0 0 0 1 1 1 1 1 1 1 1 0 0 0 0 0 1 1 1 1 0 0 0
1 1 0 0 0 0 0 1 1 1 1 1 1 1 1 1 1 1 2 2 1 1 1 1 0 0 0 0 0 0 0 1 1 1 1 0 0 0 0 0 1 1 1 1 1 1 1 0 0
1 1 0 0 0 0 1 1 1 1 1 1 1 1 1 1 1 2 2 2 1 1 1 1 1 1 0 0 0 0 0 0 0 0 0 0 0 0 0 0 1 1 1 1 1 1 1 0 0
0 0 0 0 0 1 1 1 1 1 1 1 1 1 1 1 1 2 2 1 1 1 1 1 1 1 0 0 0 0 0 0 0 0 0 0 0 0 0 1 1 1 1 1 1 1 0 0 0
0 0 0 0 1 1 1 1 1 1 1 1 1 1 1 1 1 1 1 1 1 1 1 1 1 1 1 0 0 0 0 0 0 0 0 0 0 0 0 1 1 1 1 1 1 1 1 1 1
0 0 0 0 0 0 1 1 1 1 1 1 1 1 1 1 1 1 1 1 1 1 1 1 1 1 1 1 1 0 0 0 0 0 0 0 0 0 1 1 1 1 1 1 1 1 1 1 1
0 0 0 0 0 0 0 0 1 1 0 0 1 1 1 1 1 1 1 1 1 1 1 1 1 1 1 1 1 1 1 1 1 0 0 0 1 1 1 1 1 1 1 1 1 1 1 1 1
0 0 0 0 0 0 0 0 0 1 1 1 1 1 1 1 1 1 1 1 1 1 1 1 1 1 1 1 1 1 1 1 1 1 0 0 0 1 1 1 1 1 1 1 1 1 1 1 1
0 0 1 1 0 0 0 0 0 1 1 1 1 1 1 1 1 1 1 1 1 1 2 2 2 1 1 1 1 1 1 1 1 1 1 0 0 0 0 1 1 1 1 1 1 1 1 1 1
0 0 0 0 0 0 0 0 0 1 1 1 1 1 1 1 1 1 1 1 1 2 3 3 3 2 1 1 2 2 1 1 1 1 1 0 0 0 0 1 1 1 1 1 1 1 1 0 0
0 0 0 0 0 0 0 0 0 1 1 1 1 1 1 1 1 1 1 1 1 2 3 3 3 2 2 2 2 2 2 2 1 1 1 0 0 1 1 1 1 1 1 1 1 1 0 0 0
0 0 0 0 0 0 0 0 1 1 1 1 1 1 1 1 1 1 2 2 1 1 2 2 2 2 2 3 4 4 3 3 2 2 1 1 1 1 1 1 1 1 1 1 0 0 0 0 0
0 0 0 0 0 0 0 0 1 1 1 1 1 1 1 1 1 1 2 1 1 1 1 1 1 1 2 3 4 5 4 4 3 3 2 1 1 1 1 1 1 1 1 1 1 0 0 0 1
0 0 0 0 0 0 0 0 1 1 1 0 0 1 1 1 1 1 1 1 1 1 1 0 0 1 1 2 4 6 6 4 4 3 2 2 2 2 1 1 1 1 1 1 1 1 0 1 1
0 0 0 0 0 0 0 0 1 1 1 0 0 1 1 1 1 1 1 1 1 0 0 0 0 0 1 1 3 6 5 3 3 3 2 2 2 2 1 1 1 1 1 1 1 1 1 1 1
0 0 0 0 0 0 0 0 1 1 1 0 0 1 1 1 1 1 1 1 1 0 0 0 0 0 1 1 2 3 3 2 2 2 2 2 2 1 1 1 1 1 1 1 1 1 1 1 1
0 0 0 0 0 0 0 0 1 1 1 0 1 1 1 1 1 1 1 1 1 1 1 1 0 1 1 1 1 1 2 2 1 1 1 1 1 1 1 1 1 1 1 1 1 1 1 1 1
0 0 0 0 0 0 0 0 1 1 1 1 1 1 1 1 1 1 1 1 1 1 1 1 1 1 1 1 1 1 1 2 2 1 1 1 1 1 1 1 1 1 1 1 1 1 1 1 1
0 0 0 0 0 0 0 0 1 1 1 1 1 1 1 1 1 1 1 1 1 1 1 1 1 1 1 1 1 1 1 2 2 2 1 1 1 1 1 1 1 1 1 1 1 1 1 1 1
0 0 0 0 0 0 0 1 1 1 1 1 1 2 2 1 1 1 1 2 1 1 1 1 1 1 1 1 1 1 1 2 2 2 2 2 1 1 1 1 1 1 1 1 1 1 1 1 1
0 0 0 0 0 0 0 0 1 1 1 1 1 2 2 1 1 1 1 1 1 1 1 1 1 1 1 1 1 1 1 1 2 2 1 2 1 1 1 1 1 1 1 1 1 1 1 1 1
0 0 0 0 0 0 0 0 0 1 1 1 1 1 1 1 1 1 1 1 1 1 1 1 1 1 1 1 1 1 2 2 2 2 1 1 1 1 2 2 2 2 1 1 2 2 2 2 1
0 0 0 0 0 0 0 0 0 1 1 1 1 1 1 1 1 1 1 1 1 1 1 1 2 2 2 1 1 2 2 2 2 2 1 1 1 1 1 2 2 2 1 1 2 2 2 2 2
Wind_Speed
8 10 6 2 3 2 2 4 6 6 7 8 8 8 11 13 9 7 3 5 8 8 9 9 8 8 8 8 7 7 8 8 9 9 9 9 9 10 10 10 10 10 10 11 11 11 11 11 10
8 5 3 3 2 0 3 5 7 8 6 4 6 8 11 11 10 7 4 6 8 8 8 8 8 8 8 8 7 7 7 8 8 8 9 9 10 10 10 11 11 11 11 11 11 11 11 11 11
11 6 4 2 1 2 4 7 7 7 6 5 6 9 9 7 8 6 5 7 8 9 9 9 9 9 8 8 8 8 8 8 8 8 9 9 10 10 10 11 11 11 11 11 11 11 11 11 10
5 3 3 1 3 4 6 6 6 7 5 5 6 9 8 7 6 7 7 7 9 9 10 8 9 9 8 9 9 9 9 9 9 9 9 9 10 10 10 11 11 11 11 11 11 11 11 10 10
3 3 2 0 2 4 5 5 6 5 5 6 7 10 9 9 10 9 6 7 8 9 9 9 10 9 9 10 10 11 10 10 10 10 10 10 10 10 10 11 11 11 11 10 10 10 10 10 10
3 2 2 1 2 4 5 4 5 6 6 6 6 9 7 7 7 6 6 6 8 9 9 9 10 10 10 10 10 10 10 11 11 10 10 10 10 10 11 11 11 11 11 10 10 10 10 10 10
3 2 1 1 2 4 4 4 5 5 5 4 4 7 8 7 5 6 6 6 7 8 8 7 8 8 9 10 9 9 9 9 10 9 9 9 9 10 10 11 11 11 10 10 10 9 9 9 8
3 2 2 1 2 4 4 4 4 5 5 5 5 5 7 8 7 6 6 6 5 6 6 6 7 7 7 7 8 8 8 8 8 8 8 8 8 8 9 9 10 10 10 10 9 8 8 7 7
3 1 1 2 2 3 4 3 4 4 6 6 8 9 10 10 8 7 6 5 4 4 4 4 5 5 6 6 7 7 6 6 6 5 6 6 4 4 5 9 9 9 8 8 7 6 6 5 4
1 0 2 2 4 3 4 4 3 4 5 6 8 11 11 9 7 6 5 5 4 3 3 3 4 4 5 4 4 3 3 4 3 3 4 3 3 4 6 7 7 7 6 5 4 3 3 2 1
1 1 1 3 4 3 4 4 4 4 3 4 6 8 9 8 6 5 5 5 4 3 4 4 4 4 3 3 3 1 1 1 1 2 3 3 3 3 4 3 3 3 3 2 2 1 0 1 1
1 1 1 3 4 3 3 4 5 5 4 6 7 7 8 7 6 5 5 4 4 5 3 3 4 3 3 3 2 2 1 1 1 2 3 2 2 2 2 2 2 2 1 1 1 1 2 3 3
2 1 1 1 2 2 4 4 4 4 5 7 8 8 6 6 5 4 4 5 5 5 4 3 3 3 3 3 2 2 2 1 2 1 2 3 2 2 2 2 2 2 1 1 1 2 3 4 5
1 1 1 2 2 2 3 3 3 3 5 6 7 6 5 5 5 4 3 4 4 5 4 3 3 2 3 3 2 2 2 2 2 1 1 3 2 2 2 3 2 1 1 1 2 3 3 3 4
3 3 3 3 4 3 2 1 3 4 5 5 6 6 5 4 4 4 4 3 3 5 5 4 3 2 3 3 2 2 1 2 2 1 1 2 3 2 2 2 2 1 1 2 3 3 3 3 3
6 5 4 4 5 4 3 1 3 5 6 4 4 5 5 4 4 4 4 3 3 4 4 3 3 3 3 2 2 2 2 2 2 1 1 2 3 3 2 2 1 2 2 2 2 2 2 3 3
6 5 5 4 5 5 4 2 5 5 6 6 5 5 5 4 4 4 4 3 4 3 3 3 3 2 3 2 2 2 2 2 1 2 2 2 2 3 3 1 1 2 2 2 2 2 2 2 2
4 4 3 3 4 5 3 3 5 5 5 5 5 5 4 4 4 4 4 3 3 3 3 3 3 2 2 2 2 2 2 2 2 2 2 2 2 3 3 1 2 3 2 2 2 2 2 1 1
5 5 4 2 2 3 2 3 4 5 4 4 4 4 4 4 4 4 4 4 3 2 3 3 2 2 2 2 2 1 1 1 1 1 2 2 2 3 2 1 2 2 2 1 2 2 2 1 1
6 6 5 1 2 2 2 3 3 5 5 4 5 5 5 5 5 4 4 3 3 3 2 3 3 2 2 2 1 1 1 1 2 1 1 1 1 2 2 2 2 2 2 1 1 1 1 1 1
6 6 4 3 2 4 4 4 5 6 5 5 4 5 4 5 6 5 4 4 3 2 2 2 3 3 2 2 1 1 2 1 1 1 1 1 1 1 1 1 2 1 2 1 1 1 1 0 1
5 4 5 5 5 4 6 3 4 6 6 6 5 5 4 4 6 6 4 4 3 2 2 1 2 3 2 3 3 2 1 1 1 1 1 1 1 1 1 1 1 1 1 1 1 1 0 1 1
5 6 7 8 7 7 7 5 3 6 6 6 6 5 5 5 5 6 5 4 3 3 2 1 2 2 2 2 3 2 1 1 1 2 2 1 1 1 1 1 1 1 1 2 1 1 1 1 0
5 7 9 9 6 7 7 5 2 4 6 6 7 6 6 5 5 5 5 4 3 3 2 1 2 2 2 2 2 2 2 2 2 2 2 1 1 1 1 1 1 1 1 1 1 1 1 1 0
6 5 4 4 5 4 3 2 1 4 4 4 5 6 6 5 5 5 5 5 4 4 3 2 2 2 2 1 1 2 2 3 3 2 2 2 1 1 1 1 1 1 1 1 1 1 1 1 1
6 7 4 4 3 2 2 2 4 6 6 5 4 5 6 5 5 5 5 5 4 4 4 3 2 2 1 1 1 1 2 2 2 1 1 2 2 2 2 2 2 1 1 1 1 1 1 1 1
6 6 6 6 8 5 2 4 6 7 6 5 4 4 5 5 5 4 5 5 4 4 4 3 3 2 1 0 0 1 1 1 1 1 1 1 1 1 1 1 1 1 1 1 1 0 0 0 1
7 6 4 4 4 4 2 2 4 7 5 5 5 4 5 5 5 4 3 4 4 3 3 3 3 2 2 1 1 1 1 1 1 1 0 0 0 0 1 1 1 2 1 1 1 1 1 1 1
7 7 5 4 4 4 3 1 4 6 5 5 5 4 4 5 4 4 4 3 3 3 3 2 2 2 1 1 1 1 1 1 1 1 0 0 0 0 0 1 1 1 1 1 1 1 2 2 1
5 6 5 4 4 4 3 0 4 5 5 5 4 4 4 4 4 4 4 3 3 3 3 2 2 1 1 1 1 1 1 1 0 1 1 0 1 0 0 0 0 0 0 0 1 2 1 2 1
Wind_Direction
260 243 240 252 257 229 51 63 70 57 55 50 45 52 62 52 47 85 135 99 97 100 102 93 81 76 73 70 68 68 75 76 76 74 72 72 71 69 65 62 64 63 63 63 62 64 63 63 62
270 264 257 243 262 344 71 77 71 68 74 72 63 62 71 67 71 94 108 92 100 101 99 92 89 81 75 71 67 71 82 85 84 82 77 76 74 71 69 66 66 66 65 64 64 66 65 64 61
260 259 264 252 346 42 63 73 88 85 75 64 74 62 54 65 80 98 104 105 98 96 96 95 94 85 79 72 68 77 88 91 90 89 84 81 78 74 72 70 68 66 67 67 67 68 66 62 61
256 254 250 263 44 49 73 86 93 91 80 62 80 81 68 54 81 104 113 113 105 101 100 101 98 91 82 74 70 80 87 87 90 93 87 83 80 76 73 72 69 67 68 68 68 68 66 64 62
232 253 239 152 71 67 73 80 91 92 86 68 71 89 87 76 87 102 108 107 106 106 107 108 104 98 91 83 75 77 80 84 92 95 91 87 82 78 75 74 72 70 70 69 69 68 68 66 62
265 252 252 106 85 82 73 71 77 82 86 90 94 103 96 97 98 107 109 104 103 107 112 116 114 108 101 94 84 80 81 83 91 94 91 89 87 84 81 79 77 73 72 73 72 71 72 69 64
279 302 298 82 86 76 70 70 80 79 76 67 77 97 114 116 121 117 116 109 111 114 118 127 132 126 116 108 100 94 93 92 95 99 98 98 95 92 88 85 81 78 77 77 78 76 74 72 68
282 299 306 342 74 74 70 73 83 84 74 58 51 90 121 129 128 121 115 108 114 121 130 136 141 140 135 129 120 115 110 107 109 114 115 112 107 101 97 92 88 85 82 82 81 81 79 75 70
286 281 336 13 53 81 88 94 88 82 86 68 55 76 109 123 127 122 114 103 101 103 105 118 128 132 134 133 130 136 135 134 134 137 142 141 131 121 105 96 96 96 94 92 90 90 89 87 80
196 345 1 14 56 72 84 82 94 93 90 83 81 91 111 124 126 125 122 116 108 106 109 99 94 91 101 104 123 144 146 149 162 150 147 143 118 107 106 111 114 115 114 114 117 121 117 115 106
145 113 1 20 60 55 75 77 70 83 94 112 115 119 127 128 126 129 121 120 117 111 94 102 100 93 92 97 108 109 109 127 140 119 114 105 103 116 118 134 135 138 149 154 132 151 115 104 94
142 87 34 39 52 48 74 76 67 61 67 93 104 118 125 131 133 132 125 122 121 107 97 96 95 94 94 98 99 94 90 98 77 83 92 97 97 104 112 110 128 123 109 75 80 69 61 46 57
169 163 118 100 97 78 81 83 87 82 87 95 106 109 120 131 134 131 127 136 130 123 114 91 89 92 96 94 85 91 81 92 85 72 94 96 97 96 105 96 76 80 85 90 74 64 62 57 47
169 186 173 169 163 149 111 116 127 115 117 119 117 115 122 116 122 127 127 120 117 120 126 117 103 87 91 94 90 85 77 79 70 50 88 103 99 90 96 95 79 79 88 74 74 77 70 70 66
211 219 208 206 206 185 141 158 142 137 126 127 131 129 127 123 122 115 115 129 126 127 119 121 124 112 99 89 85 86 82 76 71 39 33 93 102 101 84 100 97 85 62 68 58 57 69 77 74
236 233 221 198 190 178 182 203 132 147 137 130 138 138 136 133 129 120 120 108 103 107 118 126 122 111 95 90 92 93 86 74 60 43 11 69 88 90 76 79 92 81 61 59 71 56 59 67 67
236 233 219 191 186 175 184 174 150 158 149 147 149 145 142 137 125 122 117 105 94 96 108 125 115 110 116 116 99 78 90 88 71 54 30 31 66 88 86 65 72 71 67 56 59 67 70 78 71
252 255 246 211 171 163 178 177 163 166 160 153 152 144 140 135 136 128 120 116 109 108 110 100 111 108 111 91 82 75 73 79 66 55 47 27 32 69 79 64 69 69 64 50 51 65 62 87 97
286 276 269 239 150 159 196 198 175 166 165 156 155 149 147 144 141 126 122 124 122 117 105 102 113 98 92 93 102 99 84 91 85 64 53 31 22 50 84 78 73 79 82 69 65 71 54 34 46
268 268 272 238 155 187 204 230 198 168 171 167 162 158 159 152 142 136 131 134 143 140 128 134 114 110 98 80 95 120 116 114 106 86 64 56 42 40 62 85 85 87 88 74 61 78 61 358 28
263 271 283 288 269 233 226 240 219 174 168 162 167 164 164 158 149 151 149 151 145 129 117 110 121 118 122 124 91 72 73 77 90 101 91 49 71 67 62 94 101 110 113 124 133 95 93 1 330
272 289 289 282 267 253 234 248 222 185 171 175 176 169 168 157 154 154 151 151 152 140 127 141 134 126 125 123 116 121 122 132 140 135 140 137 101 97 80 104 125 140 128 127 162 135 126 126 310
280 291 281 272 269 269 252 252 216 172 171 178 172 167 166 164 163 152 150 155 160 144 140 156 118 109 116 131 134 153 138 135 124 126 143 150 132 135 132 149 151 162 158 157 161 134 121 125 192
274 271 262 251 254 260 250 240 208 167 172 165 162 167 164 157 155 148 146 155 156 138 136 132 127 119 123 121 139 155 148 146 144 157 160 156 140 154 160 171 166 177 164 159 164 143 135 152 237
246 265 266 239 218 234 213 206 139 116 116 120 141 152 153 154 149 149 153 154 149 148 149 154 147 139 124 139 153 149 164 165 165 175 174 159 170 186 197 171 166 169 169 167 155 137 149 219 232
251 249 261 285 285 286 215 176 119 107 97 102 115 132 148 152 150 158 161 154 155 152 150 156 154 150 140 151 173 160 142 146 138 169 178 176 186 193 199 187 174 161 152 162 144 167 208 215 235
262 259 274 288 288 280 230 141 131 127 130 133 135 131 141 148 154 162 159 149 150 153 157 162 159 154 145 170 179 158 133 121 148 176 171 148 181 181 185 196 167 160 147 148 117 129 227 230 233
250 279 280 271 292 287 267 197 153 153 154 151 145 140 141 142 149 154 147 149 153 151 156 156 163 171 167 170 177 166 155 156 166 148 127 144 212 151 209 218 183 184 191 181 167 172 185 210 240
225 233 252 261 262 281 292 12 89 126 124 129 132 136 143 143 146 155 146 145 148 145 145 145 157 163 175 191 185 182 185 182 157 122 179 202 213 208 242 232 199 207 202 201 185 197 192 210 238
250 253 255 265 278 278 276 59 90 110 115 114 110 115 122 129 139 145 141 142 143 148 155 159 167 188 198 195 179 178 167 142 142 159 163 189 214 197 217 111 95 171 75 271 241 237 219 209 221